Lapse_Rate
4.4 4.4 4.5 4.6 4.6 4.6 4.6 4.6 5.2 5.6 5.5 5.3 4.9 4.6 4.3 4.2 4.4 4.8 5.0 4.9 5.1 5.2 5.4 5.6 5.7 5.6 5.7 5.6 6.1 5.9 6.3 6.9 6.9 7.0 7.0 6.8 6.6 6.8 6.1 6.4 6.2 6.8 7.5 7.5 7.3 7.3 7.2
4.4 4.5 4.6 4.7 4.7 4.7 4.6 5.0 5.6 5.7 5.7 5.5 5.2 4.7 4.6 4.3 4.2 4.2 4.5 4.7 4.8 5.1 5.0 5.5 5.5 5.7 5.7 5.6 5.9 6.2 5.9 6.5 6.8 7.0 7.1 7.1 6.6 6.8 6.2 6.2 6.2 6.5 7.5 7.3 7.0 7.5 7.3
4.4 4.4 4.6 4.5 4.6 4.8 4.7 5.3 5.9 5.9 5.8 5.8 5.5 5.2 5.0 4.9 4.5 4.2 4.0 4.1 4.4 4.2 5.0 4.9 5.0 4.9 5.3 5.4 5.5 6.1 6.0 6.0 6.5 6.6 6.9 7.0 7.0 6.6 6.8 6.3 6.3 6.1 6.9 7.3 6.9 7.5 7.3
4.5 4.5 4.5 4.5 4.6 4.7 4.7 5.3 5.9 5.9 5.9 5.8 5.9 6.0 6.0 5.7 5.2 4.5 4.1 3.8 3.9 4.5 4.3 4.8 4.7 4.5 4.9 5.1 5.4 5.7 6.4 6.2 6.0 6.5 6.6 6.6 6.6 6.5 6.1 5.9 6.4 6.1 6.1 6.7 7.1 6.9 7.5
4.5 4.6 4.5 4.5 4.7 4.7 4.8 5.4 5.8 5.9 5.9 5.8 6.0 6.5 7.0 6.8 6.5 5.6 4.8 4.2 4.0 3.8 3.6 2.9 4.0 4.4 4.3 4.8 5.2 5.6 5.9 6.2 6.1 6.1 6.2 6.5 6.3 6.2 6.2 5.7 6.2 6.2 6.7 6.7 7.4 7.0 7.1
4.7 4.7 4.8 4.7 4.8 4.9 4.9 5.4 5.7 5.8 5.8 5.8 6.0 6.7 7.1 7.0 6.9 6.7 6.1 5.0 4.2 3.7 4.0 2.9 2.9 3.8 4.3 4.6 4.8 5.5 5.7 5.5 6.1 6.0 6.0 6.2 6.1 5.7 5.8 5.9 6.1 6.7 6.5 6.8 6.7 7.1 7.3
4.8 4.8 4.8 4.9 4.9 4.8 4.9 5.4 5.7 5.7 5.8 5.8 5.8 6.5 7.1 7.0 6.8 6.7 7.0 6.3 4.8 4.3 4.1 4.0 3.6 3.5 4.6 4.4 4.4 4.9 5.5 5.5 5.0 5.5 5.9 6.3 6.1 5.9 5.9 6.0 6.4 7.2 7.1 6.6 7.1 7.1 6.8
4.8 4.8 4.9 4.9 4.9 4.7 4.9 5.5 5.7 5.8 5.8 5.8 5.9 6.4 7.0 7.0 6.9 6.9 6.8 6.9 5.9 4.7 4.0 3.9 3.6 3.2 4.3 4.5 4.6 4.4 5.0 5.2 5.2 4.3 5.0 5.4 5.6 6.3 6.4 6.5 6.2 6.4 6.9 6.9 7.2 6.5 6.2
4.7 4.9 5.0 4.9 4.9 4.8 5.1 5.5 5.8 5.9 5.9 5.8 5.9 6.3 6.8 7.0 6.9 6.8 6.8 7.0 7.1 6.1 4.7 4.4 4.1 3.8 4.6 4.1 4.7 4.5 4.5 4.9 5.2 5.2 4.3 4.8 5.9 6.3 6.3 6.4 6.0 5.9 6.5 6.9 7.2 7.1 6.2
4.8 4.8 4.9 5.0 4.9 5.0 5.2 5.5 5.8 6.0 6.0 5.9 6.0 6.2 6.7 7.1 6.8 6.4 6.8 6.9 7.0 6.9 5.4 4.6 5.2 4.7 4.4 3.8 4.5 5.4 4.4 4.5 4.7 5.2 5.6 5.1 6.3 6.2 6.4 6.2 6.1 6.2 6.6 6.8 7.0 6.9 6.9
4.8 4.8 4.9 4.9 4.9 4.9 5.3 5.6 5.8 6.0 6.1 6.0 6.1 6.3 6.6 6.9 6.6 6.5 6.8 6.7 7.0 7.4 6.9 5.7 4.8 4.6 4.7 4.0 5.2 5.8 5.2 4.8 4.6 4.7 5.4 5.0 4.6 5.6 6.3 5.5 6.4 5.8 7.2 6.7 6.7 6.8 7.2
4.5 4.5 4.9 5.0 4.9 5.0 5.3 5.6 5.8 6.0 6.1 6.1 6.2 6.5 6.8 7.0 6.8 6.7 6.8 6.7 7.1 7.2 7.8 6.9 6.2 5.0 4.5 4.6 4.9 4.1 4.9 5.2 4.8 4.8 4.8 5.0 5.2 5.7 5.6 6.1 6.3 6.4 6.3 6.8 6.6 6.8 7.4
4.4 4.4 4.5 4.8 5.1 5.1 5.4 5.5 5.8 5.9 6.0 6.1 6.3 7.0 7.2 7.2 7.2 6.9 6.8 6.7 6.8 7.1 7.8 7.5 6.8 6.3 5.5 4.6 4.6 4.1 4.8 5.4 5.1 4.8 4.8 4.8 5.0 4.9 5.6 6.1 5.9 6.1 6.0 5.4 5.7 6.4 6.5
4.6 4.5 4.6 4.6 4.7 5.2 5.5 5.6 5.7 5.8 5.8 5.9 6.3 7.1 7.6 7.3 7.2 7.1 6.8 6.7 6.7 7.4 7.7 8.3 7.9 7.4 6.9 6.2 5.4 5.1 5.0 5.1 5.3 5.5 5.5 5.0 5.0 4.7 4.8 5.5 4.7 5.1 5.4 6.1 6.5 6.7 7.1
4.7 4.8 4.9 4.8 4.8 5.1 5.6 5.6 5.8 5.8 5.8 5.8 6.2 6.9 7.7 7.5 7.7 7.6 6.8 6.5 7.0 7.4 7.4 8.0 8.6 8.3 7.8 7.0 6.0 6.5 6.4 6.5 5.6 5.3 5.5 5.5 5.5 5.5 5.4 5.8 5.9 5.1 5.2 5.8 6.2 5.7 6.7
4.8 5.0 5.1 4.9 4.8 5.1 5.4 5.6 5.6 5.8 5.8 5.8 6.0 6.8 7.3 7.7 7.8 7.6 6.9 6.4 6.9 6.8 6.8 7.3 8.3 8.7 8.2 7.8 6.7 5.9 5.9 6.4 6.7 6.4 5.7 5.7 5.7 5.7 5.7 5.5 5.4 5.2 5.4 5.2 5.0 5.9 6.0
5.0 5.1 5.0 5.0 5.0 5.2 5.4 5.4 5.1 5.2 5.7 5.8 5.7 6.3 7.0 7.7 7.6 7.5 7.1 6.6 6.7 6.6 6.6 6.9 7.8 8.0 8.2 8.0 6.9 6.1 5.8 5.4 6.4 6.6 6.3 6.0 6.1 6.2 5.8 5.8 5.7 5.4 5.3 5.3 5.4 6.0 7.1
5.1 5.1 5.0 5.1 5.2 5.2 5.3 5.5 5.4 5.2 5.3 5.8 5.6 6.1 6.9 7.2 7.4 7.5 7.4 6.9 6.7 6.9 6.8 6.7 6.8 7.2 7.6 8.0 7.6 7.0 5.9 5.7 5.4 4.8 5.4 5.5 5.7 6.3 6.2 6.4 6.0 5.9 5.9 5.6 5.6 5.4 6.1
5.1 5.1 5.2 5.1 5.0 5.3 5.3 5.5 5.6 5.4 5.3 5.5 5.5 6.1 6.9 6.9 6.9 7.3 7.4 7.4 7.0 6.7 6.6 6.9 6.9 7.0 7.2 7.5 7.7 7.4 6.4 6.3 5.6 5.7 5.2 4.8 5.0 5.2 6.4 6.6 6.3 6.2 6.2 5.7 6.2 7.2 6.4
5.0 5.0 5.1 5.0 5.1 5.2 5.2 5.0 5.2 5.3 5.3 5.5 5.4 5.5 6.5 6.7 7.0 7.1 7.3 7.5 7.1 7.1 6.8 6.7 6.6 6.8 6.8 6.7 7.0 6.7 7.1 6.8 6.1 5.6 5.3 4.9 4.8 4.6 5.3 4.5 4.5 4.3 4.5 4.9 5.4 6.2 6.1
5.0 5.0 5.0 5.0 5.1 5.1 5.1 5.1 5.2 5.2 5.3 5.4 5.5 5.6 5.9 6.0 6.9 6.7 6.7 7.1 6.9 7.0 7.1 6.9 6.7 6.8 6.8 6.5 6.6 6.3 6.6 6.9 6.6 5.9 5.2 5.2 5.4 5.0 4.6 5.0 4.2 4.1 3.5 3.6 4.5 4.6 6.1
5.1 5.0 5.0 5.0 4.7 4.6 4.8 5.2 5.3 5.3 5.0 5.2 5.4 5.6 5.7 5.8 5.8 6.2 6.4 6.7 6.8 7.1 7.1 7.3 7.0 6.7 6.5 6.5 6.6 6.6 7.0 7.0 7.1 6.7 5.9 5.3 5.2 5.2 4.9 4.7 4.6 4.8 4.6 4.3 3.9 4.1 4.1
5.2 5.1 5.1 5.0 4.7 4.6 4.9 5.2 5.2 5.3 5.1 5.4 5.5 5.6 5.2 5.8 5.9 6.0 6.5 6.7 7.3 6.9 7.1 7.2 6.9 6.2 6.6 7.1 7.2 6.8 6.7 6.7 6.7 6.7 6.4 5.6 5.2 5.2 5.3 5.4 5.2 5.0 4.8 4.5 4.7 4.4 4.6
5.2 5.1 5.1 5.1 5.0 4.7 4.7 5.2 5.4 5.3 5.3 5.4 5.5 5.3 5.3 5.3 5.7 6.4 6.5 6.8 7.0 6.9 6.8 6.8 6.2 6.5 7.3 7.5 6.9 6.5 6.3 6.3 6.3 6.2 6.3 6.1 5.8 5.7 5.2 5.3 5.3 5.0 5.7 5.5 5.0 5.1 4.7
5.3 5.3 5.2 5.2 5.3 5.2 5.1 5.1 5.4 5.5 5.5 5.4 5.5 5.5 5.3 5.1 5.8 6.4 6.7 6.6 6.9 6.8 6.9 6.5 6.6 6.9 7.3 6.7 6.6 6.4 6.2 5.9 6.0 6.1 5.8 5.7 5.7 5.9 6.2 6.7 6.0 5.5 5.6 5.5 5.8 5.5 5.3
5.4 5.5 5.5 5.5 5.6 5.5 5.4 5.3 5.2 5.4 5.4 5.5 5.6 5.5 5.5 5.2 7.0 6.7 6.5 6.6 6.7 6.7 6.9 6.9 7.2 7.5 7.2 7.0 7.1 6.6 6.7 6.4 6.0 5.5 6.5 5.8 5.8 5.9 6.2 6.3 6.8 6.3 6.2 5.8 5.8 5.3 6.1
5.6 5.7 5.7 5.6 5.6 5.5 5.6 5.7 5.6 5.5 5.4 5.4 5.6 5.9 5.6 5.7 7.4 6.6 6.5 6.4 6.9 6.7 6.6 7.0 7.2 7.1 7.2 7.5 7.2 7.0 6.7 6.9 6.3 5.7 6.0 5.9 5.9 5.7 5.8 6.3 6.2 6.7 6.3 6.2 6.2 5.7 6.6
5.8 5.8 5.9 5.7 5.6 5.6 5.8 5.8 5.7 5.6 5.1 5.3 5.7 6.1 6.1 6.1 7.0 7.2 7.4 6.8 6.8 6.8 6.6 6.9 6.7 7.0 7.3 7.2 7.3 7.4 6.6 6.8 6.3 6.6 6.7 6.1 6.1 6.1 6.0 6.5 6.6 8.2 7.0 6.8 6.3 6.0 5.9
5.9 6.0 5.9 5.7 5.6 5.7 5.9 5.9 5.9 5.6 5.3 4.9 5.7 6.4 6.3 6.0 6.6 7.0 7.1 6.9 6.9 7.1 6.7 6.6 6.5 6.6 6.7 7.0 7.3 7.3 6.8 6.6 6.7 6.6 7.1 7.1 6.3 7.1 6.9 6.9 7.6 7.6 7.1 7.0 6.7 6.6 6.1
Wind_Speed
19 19 20 20 21 21 22 23 22 20 17 14 15 16 16 16 17 17 14 12 8 11 15 16 18 20 7 12 18 9 4 2 8 11 20 20 23 21 21 16 14 19 17 11 16 12 13
19 19 20 21 21 20 20 21 22 22 19 16 15 16 17 16 17 17 17 12 11 9 12 14 17 20 6 22 6 16 14 9 7 11 13 17 14 21 13 16 19 11 20 14 13 16 15
18 19 19 19 20 20 20 20 20 20 22 20 17 16 16 17 16 17 17 17 12 11 13 10 13 7 9 18 6 7 10 14 11 12 11 13 12 15 11 11 15 16 14 14 15 14 12
15 16 19 19 19 20 19 19 17 19 20 20 20 18 16 15 17 16 16 15 17 13 12 10 8 3 10 15 20 20 7 8 9 8 10 6 7 14 11 5 8 16 18 19 19 20 13
17 16 18 17 19 20 21 19 18 18 19 20 20 18 16 15 17 16 16 15 16 17 14 12 6 5 10 15 12 19 23 15 12 10 9 6 8 14 11 16 15 17 19 22 19 13 12
14 17 17 18 18 18 19 19 20 19 20 18 19 19 18 18 17 16 13 16 16 16 10 9 6 3 10 13 6 12 14 20 15 9 9 12 11 14 16 17 25 21 20 21 19 14 15
16 16 17 15 18 18 18 20 19 20 20 20 19 19 19 19 18 16 10 8 7 7 13 10 6 5 14 5 11 9 15 8 13 19 22 22 16 25 35 29 23 20 24 21 20 19 10
14 15 15 16 18 16 17 18 19 19 19 21 20 18 19 20 20 13 8 6 7 4 9 15 21 22 21 8 7 12 10 17 12 21 27 16 28 41 26 26 24 24 25 22 14 8 13
13 14 14 16 16 18 18 20 19 18 19 20 21 20 20 19 18 9 9 10 10 7 6 12 24 25 24 17 17 20 10 10 13 25 29 29 37 22 29 25 27 30 30 24 20 16 18
13 13 14 15 16 17 17 18 18 19 18 19 20 21 20 20 9 5 5 5 10 2 6 8 7 8 27 12 12 26 12 7 6 23 31 27 36 27 28 29 30 29 28 23 22 19 20
16 14 14 14 14 15 16 17 17 18 18 19 20 20 19 15 10 6 5 8 4 2 6 3 5 3 13 20 5 14 25 13 13 9 12 18 29 39 27 38 27 29 19 21 20 22 20
18 16 16 15 15 15 15 16 17 17 17 19 19 19 18 9 5 9 8 5 2 5 8 5 5 7 14 26 23 4 14 18 5 19 14 20 16 23 41 27 26 25 12 18 16 14 18
19 18 17 16 15 15 16 16 17 17 17 18 19 19 16 13 7 7 3 2 5 8 3 4 5 5 14 18 22 23 17 18 12 5 9 12 22 16 17 27 17 23 21 6 8 10 21
18 18 18 17 16 17 16 16 17 18 18 19 19 21 11 12 13 10 2 3 11 5 14 1 6 12 12 5 18 23 23 15 24 14 3 8 7 21 26 29 19 22 19 10 12 13 20
18 18 17 18 16 17 17 17 17 17 17 19 21 8 8 10 11 7 3 9 7 8 3 9 13 10 14 1 5 13 27 22 9 22 10 6 6 19 18 22 29 23 14 24 4 3 4
16 19 17 18 17 17 16 18 17 16 16 18 8 10 11 9 11 6 5 20 8 4 11 11 11 4 13 11 6 9 5 8 20 17 19 7 6 9 18 24 24 11 20 9 4 9 9
18 18 17 19 18 17 17 16 17 15 14 17 6 5 2 1 6 4 11 10 12 8 13 9 12 13 15 14 12 13 6 7 9 12 11 12 6 8 14 10 14 9 8 7 9 6 10
19 18 20 19 18 17 18 17 16 12 12 7 4 4 2 3 3 3 7 9 11 15 11 7 7 14 18 18 22 18 14 12 4 6 9 4 3 8 18 15 24 23 14 10 7 10 15
19 20 18 22 18 17 18 17 13 9 8 4 3 6 5 5 6 9 14 14 10 17 16 12 12 8 9 10 7 11 16 8 11 2 1 5 5 5 8 16 9 8 21 23 15 11 19
21 19 18 18 17 18 18 18 13 9 7 3 3 4 3 3 7 14 14 12 15 7 18 15 10 10 9 12 14 12 17 5 4 9 2 1 6 9 10 5 6 7 14 14 8 14 20
20 20 18 18 19 17 18 19 13 9 7 2 3 4 5 5 8 12 16 13 17 17 13 12 9 19 18 14 13 17 20 19 15 13 13 8 6 8 13 20 15 19 17 16 12 14 15
20 19 19 19 20 17 18 16 12 11 9 4 3 3 4 11 15 17 16 18 20 21 17 20 16 16 19 17 16 19 19 16 12 11 6 8 5 8 15 15 16 21 21 18 16 18 20
22 20 19 19 20 17 16 14 11 12 8 4 4 7 5 10 14 14 15 15 16 20 14 12 18 21 18 17 18 19 20 18 18 17 14 9 6 8 18 13 12 13 21 21 20 21 18
23 19 19 15 15 16 16 13 16 15 12 7 6 5 6 13 14 16 17 21 22 23 21 23 21 20 17 19 19 18 20 20 20 23 18 12 11 8 11 8 14 19 13 15 18 19 19
20 18 18 19 17 16 15 15 17 18 17 8 9 6 5 11 16 18 22 19 21 21 21 23 24 22 18 19 12 10 7 8 14 25 24 21 13 9 7 10 15 21 14 13 16 22 21
20 19 18 18 18 19 16 15 15 17 19 10 9 9 6 7 16 23 22 22 17 16 18 22 22 18 17 4 7 12 11 9 7 5 21 24 21 13 11 9 11 16 13 21 22 22 19
20 20 17 17 17 18 16 17 17 17 16 7 5 8 5 8 17 19 18 16 17 17 13 17 14 8 11 6 9 12 17 16 15 9 6 14 14 20 17 17 13 26 18 11 19 12 12
17 17 17 16 17 19 18 17 18 18 18 10 8 9 9 10 18 23 28 22 15 13 13 7 5 6 4 8 6 5 8 12 15 20 17 13 11 12 13 14 19 29 20 21 18 20 22
17 18 17 16 18 18 14 17 20 19 18 17 10 10 9 9 12 19 22 26 29 32 18 11 8 14 3 4 5 5 6 6 15 16 20 18 13 12 11 12 19 20 15 13 16 20 26
Wind_Direction
353 355 352 357 355 355 351 354 352 338 319 308 307 310 314 316 316 313 312 318 290 317 322 330 326 329 293 218 238 151 147 89 155 178 197 195 198 205 219 220 216 229 244 225 237 229 235
352 353 351 353 352 352 349 350 350 352 337 312 302 303 306 311 312 311 310 303 300 280 302 322 329 336 265 230 251 230 214 244 232 201 203 207 214 206 239 224 223 215 236 231 231 231 241
350 349 347 351 346 348 348 347 348 352 358 347 315 300 300 304 305 305 306 303 287 294 296 310 329 327 286 255 325 221 221 234 234 230 220 212 229 197 212 219 220 239 239 223 230 230 231
348 347 345 345 341 346 346 344 346 350 350 346 345 330 301 300 301 297 297 300 294 276 283 293 297 297 269 289 285 250 215 229 221 221 239 230 223 231 219 218 199 222 232 243 227 221 222
341 349 340 349 342 338 341 345 348 348 344 342 340 339 331 314 300 292 296 297 293 278 263 261 250 219 256 302 262 245 243 234 206 207 218 230 217 219 195 225 223 211 228 225 234 202 211
345 338 346 343 339 339 340 341 351 349 343 339 338 335 336 326 321 297 301 299 280 270 250 237 225 40 257 255 256 241 222 225 222 191 186 202 203 212 217 210 223 213 222 240 220 195 214
335 340 339 338 334 339 335 339 343 342 341 339 339 336 338 330 324 318 298 300 253 240 220 227 203 203 290 311 296 233 226 170 219 217 206 196 201 215 217 216 233 241 227 228 219 220 230
333 333 334 330 333 333 333 335 337 338 338 337 337 333 333 334 325 314 279 264 305 328 288 248 251 241 237 276 296 285 264 197 173 218 211 187 217 222 220 221 224 231 236 230 227 182 232
323 326 328 326 328 328 332 332 332 330 333 334 335 334 333 329 320 282 266 274 309 313 268 259 236 231 224 207 248 261 245 218 197 194 214 218 221 217 221 218 215 223 225 231 234 211 239
308 317 322 323 324 325 327 328 328 329 327 329 332 332 334 333 285 327 284 327 332 47 279 267 221 250 210 190 233 236 243 268 239 209 198 214 227 222 215 217 214 224 222 239 239 234 242
310 304 309 316 319 321 323 322 324 325 327 326 325 327 330 330 298 277 308 303 309 95 273 75 205 230 183 194 161 214 198 219 239 219 203 202 216 219 217 219 210 236 233 217 229 234 251
325 309 297 301 307 312 316 320 323 322 322 323 322 323 327 307 293 280 286 300 189 237 245 274 231 198 187 206 232 249 172 209 268 239 246 238 222 231 220 224 221 223 221 222 215 230 240
317 320 311 294 300 303 310 315 321 321 320 318 318 317 307 293 273 315 274 160 222 235 133 251 277 226 223 208 223 231 197 199 202 200 200 221 244 242 231 210 214 205 199 163 188 211 232
307 313 320 317 299 302 305 312 316 318 323 322 318 308 290 267 264 252 168 236 241 289 231 154 317 328 274 219 220 214 231 211 206 206 150 202 202 215 214 209 188 187 187 176 198 207 233
305 304 311 315 312 306 301 304 311 317 324 326 316 300 274 263 246 208 180 235 259 275 298 283 279 275 286 307 191 234 211 226 223 207 209 200 237 186 233 208 187 199 203 216 346 358 269
297 298 302 307 312 311 310 299 302 311 322 327 312 300 281 285 219 193 215 234 243 294 327 314 298 296 292 299 309 20 243 266 228 212 223 211 260 221 221 230 230 187 194 188 183 177 215
298 297 297 299 301 306 308 306 300 305 321 325 291 301 310 198 170 224 229 227 245 280 288 276 294 277 289 301 322 335 301 314 354 7 317 242 238 199 213 209 188 166 186 191 172 227 225
299 291 289 286 287 297 302 303 308 312 324 307 294 273 63 184 242 230 251 213 240 263 279 297 297 274 279 290 291 296 287 290 111 123 335 309 274 211 209 210 209 203 191 189 186 186 233
293 292 291 286 281 291 292 297 300 304 320 308 267 286 278 239 258 264 269 258 231 249 251 252 247 267 284 292 302 289 291 303 310 282 209 0 13 316 206 228 259 256 216 195 210 224 205
303 303 284 291 286 293 290 291 285 285 295 288 273 278 251 223 260 272 285 273 276 235 254 238 248 256 280 263 253 258 265 314 28 350 7 215 215 211 280 35 356 329 332 341 271 220 229
293 302 296 295 287 289 283 287 269 269 273 261 239 250 267 280 281 302 296 291 293 281 240 225 238 239 242 248 256 267 280 290 286 278 255 191 280 305 299 299 293 291 294 303 304 302 240
291 291 295 298 298 282 283 279 263 263 254 244 253 246 246 276 281 286 285 276 274 281 270 252 243 230 238 245 259 280 293 296 292 295 67 223 270 272 265 269 279 285 282 274 267 271 269
288 286 291 298 298 287 288 274 268 256 238 249 237 261 259 275 276 279 279 288 297 302 302 275 258 264 262 259 267 267 275 278 272 279 274 262 245 242 263 263 274 278 252 253 258 256 258
286 281 285 294 299 291 288 272 273 260 243 247 253 267 262 271 276 271 276 280 290 288 283 283 282 278 274 283 285 277 267 265 259 253 249 244 241 246 267 266 247 249 259 243 246 249 245
287 283 282 283 288 293 295 269 272 276 262 243 253 236 252 266 272 280 277 277 281 281 274 275 277 270 278 277 270 256 236 249 244 246 235 231 228 245 245 240 269 262 241 236 230 242 237
287 286 279 280 284 284 288 281 279 279 273 267 254 243 244 268 259 268 282 280 275 278 280 268 271 263 255 238 231 241 240 222 206 244 223 223 223 226 226 243 251 267 232 228 243 262 236
287 284 281 275 281 284 279 281 282 283 288 266 257 252 254 258 263 267 265 270 274 265 266 286 270 263 238 219 227 235 243 232 230 216 172 199 212 223 225 240 261 268 261 252 214 240 242
290 286 279 270 279 282 278 282 285 282 279 273 272 260 252 268 274 268 264 261 263 258 265 269 312 215 228 231 232 219 241 224 234 234 208 187 192 217 232 237 248 244 267 237 246 254 261
283 289 284 267 277 284 284 292 288 283 279 276 275 271 262 252 272 286 263 262 262 253 252 249 250 270 272 285 237 231 221 230 223 232 222 227 210 221 206 220 238 253 259 260 244 256 270